EA3KZ-1 Weather Reports


time (UTC)temp
C
wind
direction
speed
KPH
gust
KPH
rain 1hr
cm
rain 24hr
cm
rain mn
cm
humidity
%
barometer
mb
20260901204612 22 202 3.2 6.4 0.00 0.00 0.00 78 1016.1
20260901203609 22 180 3.2 6.4 0.00 0.00 0.00 77 1016.0
20260901202606 22 229 3.2 6.4 0.00 0.00 0.00 77 1015.8
20260901201604 22 243 3.2 6.4 0.00 0.00 0.00 77 1015.6
20260901200601 23 205 1.6 6.4 0.00 0.00 0.00 76 1015.7
20260901195559 23 211 1.6 6.4 0.00 0.00 0.00 75 1015.6
20260901194556 23 237 3.2 6.4 0.00 0.00 0.00 75 1015.4
20260901193553 23 235 1.6 6.4 0.00 0.00 0.00 74 1015.5
20260901192551 23 201 3.2 6.4 0.00 0.00 0.00 74 1015.5
20260901191548 24 188 3.2 6.4 0.00 0.00 0.00 73 1015.3
20260901190546 24 167 4.8 6.4 0.00 0.00 0.00 73 1015.1
20260901185543 24 121 4.8 9.7 0.00 0.00 0.00 73 1015.1
20260901184540 24 125 4.8 9.7 0.00 0.00 0.00 72 1015.0
20260901183538 24 183 4.8 6.4 0.00 0.00 0.00 72 1014.8
20260901182535 24 158 4.8 9.7 0.00 0.00 0.00 72 1014.7
20260901181533 25 145 3.2 6.4 0.00 0.00 0.00 71 1014.9
20260901180530 25 127 3.2 6.4 0.00 0.00 0.00 70 1015.1
20260901175527 25 187 4.8 11.3 0.00 0.00 0.00 70 1015.2
20260901174525 25 129 4.8 12.9 0.00 0.00 0.00 70 1015.5
20260901173522 25 164 4.8 12.9 0.00 0.00 0.00 69 1015.5
20260901172520 25 144 6.4 17.7 0.00 0.00 0.00 68 1015.6
20260901171517 25 125 9.7 20.9 0.00 0.00 0.00 68 1015.8
20260901170515 25 143 6.4 12.9 0.00 0.00 0.00 67 1015.6
20260901165612 25 72 6.4 14.5 0.00 0.00 0.00 67 1015.5
20260901164609 26 74 6.4 14.5 0.00 0.00 0.00 66 1015.5
20260901163607 26 109 4.8 12.9 0.00 0.00 0.00 66 1015.7
20260901162604 26 113 6.4 14.5 0.00 0.00 0.00 66 1015.8
20260901161602 26 118 3.2 12.9 0.00 0.00 0.00 65 1015.9
20260901160559 27 104 6.4 17.7 0.00 0.00 0.00 64 1015.8
20260901155557 27 75 4.8 9.7 0.00 0.00 0.00 62 1015.6
20260901154554 27 96 4.8 12.9 0.00 0.00 0.00 60 1015.6
20260901153551 27 111 4.8 12.9 0.00 0.00 0.00 61 1015.7
20260901152549 27 95 6.4 14.5 0.00 0.00 0.00 62 1015.9
20260901151546 27 123 6.4 17.7 0.00 0.00 0.00 63 1015.9
20260901150544 26 85 6.4 12.9 0.00 0.00 0.00 64 1015.9
20260901145541 26 109 9.7 20.9 0.00 0.00 0.00 64 1016.3
20260901144538 27 95 4.8 14.5 0.00 0.00 0.00 59 1016.0
20260901143536 27 119 4.8 9.7 0.00 0.00 0.00 59 1016.0
20260901142533 27 114 8.0 17.7 0.00 0.00 0.00 59 1016.3
20260901141531 27 114 4.8 12.9 0.00 0.00 0.00 58 1016.1
20260901140528 27 94 4.8 11.3 0.00 0.00 0.00 59 1015.8
20260901135525 27 129 6.4 17.7 0.00 0.00 0.00 59 1016.3
20260901134523 27 125 4.8 11.3 0.00 0.00 0.00 60 1016.3
20260901133521 27 176 6.4 12.9 0.00 0.00 0.00 60 1016.4
20260901132518 27 113 4.8 9.7 0.00 0.00 0.00 61 1016.6
20260901131515 28 181 8.0 17.7 0.00 0.00 0.00 58 1016.7
20260901130613 28 122 8.0 14.5 0.00 0.00 0.00 60 1016.7
20260901125610 28 61 4.8 20.9 0.00 0.00 0.00 61 1016.9
20260901124607 28 171 4.8 11.3 0.00 0.00 0.00 62 1016.8
20260901123605 27 88 6.4 17.7 0.00 0.00 0.00 63 1016.8
20260901122602 27 77 4.8 11.3 0.00 0.00 0.00 62 1017.0
20260901121600 27 74 8.0 17.7 0.00 0.00 0.00 62 1017.0
20260901120557 28 180 4.8 14.5 0.00 0.00 0.00 61 1017.1
20260901115554 27 110 4.8 12.9 0.00 0.00 0.00 62 1017.1
20260901114552 27 139 8.0 17.7 0.00 0.00 0.00 63 1017.1
20260901113549 27 98 6.4 17.7 0.00 0.00 0.00 61 1017.1
20260901112547 28 83 4.8 17.7 0.00 0.00 0.00 58 1017.2
20260901111544 27 121 6.4 14.5 0.00 0.00 0.00 59 1017.3
20260901110541 27 95 6.4 17.7 0.00 0.00 0.00 58 1017.3
20260901105539 28 127 4.8 11.3 0.00 0.00 0.00 56 1017.3
20260901104536 28 127 3.2 12.9 0.00 0.00 0.00 57 1017.2
20260901103534 27 111 4.8 12.9 0.00 0.00 0.00 56 1017.4
20260901102531 28 109 6.4 14.5 0.00 0.00 0.00 55 1017.4
20260901101529 27 98 4.8 12.9 0.00 0.00 0.00 56 1017.5
20260901100526 27 150 3.2 9.7 0.00 0.00 0.00 59 1017.4
20260901095524 28 167 3.2 6.4 0.00 0.00 0.00 57 1017.5
20260901094521 27 94 6.4 14.5 0.00 0.00 0.00 62 1017.4
20260901093518 27 130 6.4 17.7 0.00 0.00 0.00 61 1017.2
20260901092516 27 106 3.2 12.9 0.00 0.00 0.00 58 1017.1
20260901091613 26 198 3.2 6.4 0.00 0.00 0.00 61 1017.0
20260901090611 27 78 4.8 11.3 0.00 0.00 0.00 60 1016.9
20260901085608 27 105 3.2 6.4 0.00 0.00 0.00 60 1016.7
20260901084605 27 102 3.2 6.4 0.00 0.00 0.00 61 1016.7
20260901083603 26 128 1.6 3.2 0.00 0.00 0.00 62 1016.7
20260901082600 26 131 3.2 6.4 0.00 0.00 0.00 63 1016.6
20260901081558 25 113 3.2 6.4 0.00 0.00 0.00 64 1016.7
20260901080555 26 208 1.6 3.2 0.00 0.00 0.00 63 1016.5
20260901075552 25 140 1.6 3.2 0.00 0.00 0.00 65 1016.7
20260901074550 25 131 1.6 6.4 0.00 0.00 0.00 65 1016.6
20260901073547 24 202 4.8 6.4 0.00 0.00 0.00 66 1016.7
20260901072545 24 220 0.0 3.2 0.00 0.00 0.00 68 1016.6
20260901071542 23 221 4.8 9.7 0.00 0.00 0.00 71 1016.5
20260901070539 23 258 3.2 6.4 0.00 0.00 0.00 72 1016.8
20260901065537 23 228 3.2 6.4 0.00 0.00 0.00 72 1016.8
20260901064534 23 235 1.6 6.4 0.00 0.00 0.00 71 1016.8
20260901063532 23 226 1.6 3.2 0.00 0.00 0.00 71 1016.7
20260901062529 22 244 1.6 3.2 0.00 0.00 0.00 72 1016.7
20260901061526 22 258 1.6 3.2 0.00 0.00 0.00 74 1016.6
20260901060524 21 267 1.6 3.2 0.00 0.00 0.00 77 1016.7
20260901055521 21 270 1.6 6.4 0.00 0.00 0.00 78 1016.4
20260901054519 21 255 1.6 3.2 0.00 0.00 0.00 79 1016.5
20260901053516 21 251 3.2 6.4 0.00 0.00 0.00 80 1016.5
20260901052614 20 227 4.8 6.4 0.00 0.00 0.00 81 1016.6
20260901051611 20 234 3.2 6.4 0.00 0.00 0.00 81 1016.4
20260901050608 21 234 3.2 6.4 0.00 0.00 0.00 81 1016.5
20260901045606 21 248 3.2 6.4 0.00 0.00 0.00 81 1016.5
20260901044603 21 243 3.2 6.4 0.00 0.00 0.00 81 1016.5
20260901043601 21 238 1.6 3.2 0.00 0.00 0.00 81 1016.5
20260901042558 21 248 1.6 3.2 0.00 0.00 0.00 81 1016.6
20260901041556 21 252 1.6 6.4 0.00 0.00 0.00 81 1016.6
20260901040553 21 242 0.0 3.2 0.00 0.00 0.00 82 1016.6
20260901035550 21 253 1.6 3.2 0.00 0.00 0.00 82 1016.5
20260901034548 21 237 1.6 3.2 0.00 0.00 0.00 82 1016.8
20260901033545 21 0.0 3.2 0.00 0.00 0.00 83 1016.8
20260901032543 21 258 1.6 6.4 0.00 0.00 0.00 83 1016.7
20260901031540 21 240 1.6 3.2 0.00 0.00 0.00 84 1016.8
20260901030537 21 180 0.0 3.2 0.00 0.00 0.00 85 1016.8
20260901025535 22 0.0 3.2 0.00 0.00 0.00 85 1017.0
20260901024532 22 248 1.6 3.2 0.00 0.00 0.00 85 1016.9
20260901023530 22 245 1.6 3.2 0.00 0.00 0.00 85 1017.2
20260901022527 22 227 1.6 3.2 0.00 0.00 0.00 85 1017.3
20260901021524 22 238 1.6 3.2 0.00 0.00 0.00 85 1017.5
20260901020522 22 212 1.6 6.4 0.00 0.00 0.00 85 1017.5
20260901015519 22 167 1.6 3.2 0.00 0.00 0.00 85 1017.5
20260901014517 22 158 1.6 3.2 0.00 0.00 0.00 83 1017.7
20260901013614 22 114 1.6 6.4 0.00 0.00 0.00 83 1017.6
20260901012612 22 94 1.6 6.4 0.00 0.00 0.00 83 1017.6
20260901011609 22 108 1.6 3.2 0.00 0.00 0.00 83 1017.6
20260901010607 22 98 1.6 6.4 0.00 0.00 0.00 82 1017.6
20260901005604 22 96 3.2 6.4 0.00 0.00 0.00 82 1017.8
20260901004601 23 128 0.0 3.2 0.00 0.00 0.00 82 1017.8
20260901003559 23 75 1.6 3.2 0.00 0.00 0.00 82 1017.8
20260901002556 23 107 1.6 6.4 0.00 0.00 0.00 82 1017.8
20260901001554 23 135 1.6 3.2 0.00 0.00 0.00 81 1017.8
20260901000551 23 0.0 3.2 0.00 0.00 0.00 82 1017.9
20260831235548 22 135 0.0 3.2 0.00 0.00 0.00 83 1018.0
20260831234546 23 133 1.6 3.2 0.00 0.00 0.00 85 1017.9
20260831233543 23 122 0.0 6.4 0.00 0.00 0.00 85 1017.9
20260831232541 23 192 1.6 6.4 0.00 0.00 0.00 86 1017.8
20260831231538 23 119 1.6 3.2 0.00 0.00 0.00 86 1017.7
20260831230536 23 138 1.6 6.4 0.00 0.00 0.00 86 1017.6
20260831225533 22 357 3.2 9.7 0.00 0.00 0.00 87 1017.7
20260831224530 23 28 4.8 9.7 0.00 0.00 0.00 86 1017.8
20260831223528 23 3 1.6 6.4 0.00 0.00 0.00 86 1017.7
20260831222525 23 158 1.6 6.4 0.00 0.00 0.00 86 1017.7
20260831221523 23 36 1.6 6.4 0.00 0.00 0.00 86 1017.7
20260831220520 23 145 1.6 6.4 0.00 0.00 0.00 85 1017.8
20260831215517 23 27 3.2 9.7 0.00 0.00 0.00 85 1017.7
20260831214515 23 85 1.6 6.4 0.00 0.00 0.00 84 1017.5
20260831213612 23 102 3.2 12.9 0.00 0.00 0.00 84 1017.5
20260831212610 23 117 3.2 6.4 0.00 0.00 0.00 84 1017.5
20260831211607 23 107 4.8 11.3 0.00 0.00 0.00 84 1017.4
20260831210605 23 116 1.6 6.4 0.00 0.00 0.00 82 1017.3
20260831205602 23 82 1.6 6.4 0.00 0.00 0.00 81 1017.4